Location: Oriwa
(40.7500°S, 175.3333°E)
Time: 14:13:34
(UTC+00:00)

ATLAS 5 CENTAUR R/B - Pass Details

Date: 03 February 2023
Orbit: 460 x 1178 km, 63.3° (Epoch: 24 March)

Event Time Altitude Azimuth Distance (km) Brightness Sun altitude
Exits shadow 14:11:14 37° 38° (NE) 1,743 3.5 -28.3°
Maximum altitude 14:12:47 41° 65° (ENE) 1,634 3.6 -28.2°
Drops below altitude 10° 14:19:31 10° 132° (SE) 2,987 5.9 -27.6°
Sets 14:22:15 0° 138° (SE) 3,873 6.8 -27.4°
